[[{"header":{"parameterUnit":"m.s-1","parameterCategory":1,"la1":30.2991,"la2":30.254,"lo1":-89.0895,"lo2":-89.0444,"dy":0.0017,"dx":0.0017,"nx":28,"ny":28,"refTime":"2023-07-28T21:00:00:Z","depth":0,"parameterNumber":2,"parameterNumberName":"U-component_of_WINDS"},"data":[0,0,0,0,0,0,0,0,0,0,0,0,0,0,0,0,0,0,0,0,0,0,0,0,0,0,0,0,0,0,0,0,0,0,0,0,0,0,0,0,0,0,0,0,0,0,0,0,0,0,0,0,0,0,0,0,0,0,2.018,2.0181,0,2.0316,2.0317,2.0319,2.0309,2.0306,2.0304,2.0303,2.0444,2.0449,2.0455,0,0,0,0,0,0,0,0,0,0,0,0,0,1.9911,1.9916,2.018,2.0181,2.0183,2.0315,2.0317,2.0319,2.0309,2.0306,2.0304,2.0302,2.0442,2.0449,2.0455,0,0,0,0,0,0,0,0,0,0,0,0,0,2.0036,1.9918,2.0179,2.0194,2.0197,2.0315,2.0317,2.032,2.0309,2.0306,2.0303,2.03,2.044,2.0448,2.0456,2.057,0,0,2.0482,2.0486,0,0,0,0,0,0,0,0,2.0029,2.0046,2.019,2.0193,2.0196,2.0292,2.0274,2.0403,2.031,2.0267,2.0302,2.0299,2.0396,2.0408,2.044,2.0576,2.0582,2.0483,2.0488,2.0492,2.0494,0,0,0,0,0,0,0,2.002,2.004,2.0234,2.0192,2.0196,2.0194,2.0208,2.0299,2.0347,2.027,2.027,2.0286,2.0397,2.0432,2.0443,2.0584,2.0483,2.049,2.0495,2.0499,2.0819,2.0822,0,0,0,0,0,0,2.0008,2.0033,2.0229,2.0238,2.0103,2.0201,2.0217,2.0264,2.0346,2.0355,2.0288,2.0285,2.0419,2.0433,2.0448,2.0586,2.0492,2.05,2.0505,2.0816,2.082,2.0823,0,0,0,0,0,0,2.0002,2.0026,2.0224,2.0135,2.016,2.0209,2.0262,2.0269,2.0304,2.0359,2.0368,2.0315,2.0417,2.0436,2.0539,2.0591,2.0503,2.0511,2.0811,2.0817,2.0821,2.0863,0,0,0,0,0,0,1.9995,2.0024,2.0068,2.0136,2.0165,2.0313,2.0265,2.0274,2.0318,2.0315,2.0387,2.0396,2.0416,2.0526,2.0547,2.0601,2.0518,2.0807,2.0814,2.082,2.0857,2.0869,2.0879,0,0,0,0,0,1.9985,2.0075,2.007,2.0094,2.0221,2.0316,2.0332,2.0353,2.0322,2.0367,2.0402,2.0394,2.0581,2.0537,2.0561,2.0617,2.0804,2.0812,2.0819,2.0852,2.0867,2.0878,0,0,0,0,0,0,2.0013,2.0084,2.008,2.0194,2.0249,2.0314,2.0371,2.0367,2.0433,2.0427,2.045,2.0467,2.057,2.0604,2.0553,2.073,2.0688,2.0701,2.0705,2.0719,2.073,2.0721,2.0525,0,0,0,0,0,2.0032,2.0103,2.0161,2.0257,2.0284,2.0322,2.0365,2.0375,2.0433,2.0457,2.05,2.0557,2.0628,2.0675,2.0744,2.0861,2.0876,2.0911,2.0922,2.093,2.0942,2.1005,2.1022,2.0849,2.0849,2.0848,0,0,2.0073,2.0121,2.0164,2.0263,2.0307,2.038,2.0342,2.0422,2.0476,2.0469,2.0569,2.0602,2.0667,2.0777,2.0827,2.0808,2.0993,2.094,2.0947,2.0954,2.1015,2.1031,2.1046,2.0854,2.0853,2.0852,0,0,2.0185,2.0228,2.0312,2.0356,2.0421,2.0446,2.0466,2.0531,2.0552,2.0652,2.0648,2.0712,2.0835,2.0882,2.0921,2.1047,2.1042,2.1068,2.1126,2.1187,2.1201,2.1213,2.1258,2.1274,2.1079,2.1079,2.1079,0,2.0229,2.0338,2.0356,2.0435,2.0479,2.0473,2.0558,2.06,2.0685,2.0715,2.0691,2.0844,2.0887,2.1008,2.1038,2.107,2.1093,2.1062,2.1197,2.121,2.1221,2.1265,2.1282,2.1082,2.1082,2.1081,2.1081,0,2.0388,2.0464,2.0523,2.0605,2.0654,2.0736,2.0765,2.0813,2.0818,2.0845,2.0946,2.0997,2.1076,2.1104,2.1111,2.1225,2.1211,2.1192,2.1151,2.1241,2.1282,2.1299,2.1086,2.1085,2.1084,2.1083,0,0,2.0526,2.0613,2.0635,2.0671,2.0741,2.08,2.088,2.0956,2.0997,2.1054,2.1123,2.1225,2.1207,2.1251,2.1263,2.1316,2.1412,2.1291,2.1292,2.1312,2.1541,2.1557,2.1576,2.1408,2.1411,2.1414,2.1536,0,2.0647,2.0789,2.0806,2.0933,2.1003,2.0996,2.1066,2.1117,2.1143,2.1205,2.1234,2.1306,2.1277,2.1304,2.1356,2.139,2.1459,2.1381,2.1473,2.1476,2.1459,2.1597,2.1615,2.1728,2.1553,2.1555,2.1557,0,2.0808,2.0869,2.1002,2.1061,2.1091,2.1153,2.1223,2.1282,2.1339,2.1354,2.1402,2.1405,2.1488,2.144,2.1554,2.1501,2.1539,2.156,2.1565,2.1577,2.1524,2.1614,2.1765,2.1783,2.1583,2.1581,2.1579,0,2.0897,2.1011,2.1106,2.1137,2.1207,2.1251,2.1282,2.1335,2.1379,2.1439,2.1468,2.1537,2.1576,2.1629,2.1651,2.1614,2.1764,2.1718,2.1779,2.1779,2.1814,2.1812,2.1974,2.1835,2.1834,2.1834,2.1834,0,2.1031,2.1114,2.1146,2.1205,2.1296,2.1313,2.1403,2.1432,2.1479,2.1542,2.154,2.16,2.1624,2.1688,2.1705,2.1797,2.1814,2.1829,2.1833,2.1831,2.1829,2.1858,2.1851,2.1839,2.1838,2.1837,2.1836,0,2.1148,2.1173,2.1275,2.1332,2.1348,2.1413,2.1462,2.1518,2.1541,2.1621,2.1641,2.1679,2.1753,2.1779,2.187,2.1881,2.1988,2.1985,2.1969,2.1971,2.2031,2.2025,2.2219,2.2246,2.2087,2.2088,2.2089,0,2.1233,2.1296,2.1358,2.14,2.1433,2.1501,2.1544,2.1562,2.1607,2.1674,2.1722,2.1795,2.1856,2.1975,2.201,2.2079,2.2078,2.2141,2.2089,2.2084,2.2081,2.2078,2.2084,2.2152,2.2154,2.2155,2.2156,0,2.1383,2.1391,2.1454,2.152,2.1572,2.1626,2.1677,2.1712,2.1736,2.1787,2.1863,2.1909,2.2,2.2073,2.2143,2.2175,2.2171,2.2171,2.219,2.2189,2.2178,2.2186,2.1998,2.2168,2.2167,2.2166,2.2165,2.2165,2.1488,2.1543,2.1594,2.1664,2.1704,2.1751,2.1806,2.1835,2.1898,2.1973,2.1978,2.2059,2.2112,2.2204,2.224,2.2303,2.2286,2.2312,2.2319,2.2326,2.2331,2.2165,2.2316,2.2316,2.2315,2.2315,2.2315,0,2.1638,2.167,2.1733,2.1805,2.1859,2.1846,2.1902,2.1948,2.2019,2.2068,2.2126,2.2211,2.2281,2.232,2.239,2.2433,2.2433,2.2451,2.245,2.2457,2.2342,2.232,2.245,2.245,2.245,2.245,2.245,2.245,2.1723,2.1815,2.1829,2.194,2.1972,2.205,2.2083,2.2127,2.2165,2.226,2.2318,2.2342,2.2386,2.2458,2.2522,2.2531,2.2558,2.2579,2.2587,2.2479,2.2465,2.2452,2.2432,2.2584,2.2584,2.2697,2.2698,2.2699]},{"header":{"parameterUnit":"m.s-1","parameterCategory":1,"la1":30.2991,"la2":30.254,"lo1":-89.0895,"lo2":-89.0444,"dy":0.0017,"dx":0.0017,"nx":28,"ny":28,"refTime":"2023-07-28T21:00:00:Z","depth":0,"parameterNumber":3,"parameterNumberName":"V-component_of_WINDS"},"data":[0,0,0,0,0,0,0,0,0,0,0,0,0,0,0,0,0,0,0,0,0,0,0,0,0,0,0,0,0,0,0,0,0,0,0,0,0,0,0,0,0,0,0,0,0,0,0,0,0,0,0,0,0,0,0,0,0,0,3.6859,3.686,0,3.6991,3.6993,3.6994,3.6961,3.6959,3.6956,3.6954,3.7083,3.7088,3.7094,0,0,0,0,0,0,0,0,0,0,0,0,0,3.6567,3.6573,3.6859,3.686,3.6862,3.6991,3.6993,3.6995,3.6962,3.6958,3.6955,3.6952,3.7081,3.7087,3.7094,0,0,0,0,0,0,0,0,0,0,0,0,0,3.6696,3.6575,3.6858,3.6861,3.6863,3.6991,3.6993,3.6995,3.6962,3.6958,3.6954,3.6951,3.7078,3.7087,3.7095,3.7227,0,0,3.7122,3.7126,0,0,0,0,0,0,0,0,3.6689,3.6707,3.6859,3.6861,3.6863,3.6956,3.6937,3.7073,3.6963,3.6924,3.6953,3.6949,3.7043,3.7054,3.7088,3.7233,3.7238,3.7123,3.7128,3.7132,3.7134,0,0,0,0,0,0,0,3.668,3.6701,3.6911,3.6861,3.6864,3.6853,3.6867,3.6963,3.7003,3.6927,3.6925,3.6942,3.7043,3.7079,3.709,3.724,3.7123,3.713,3.7136,3.7139,3.7494,3.7498,0,0,0,0,0,0,3.6671,3.6694,3.6907,3.6915,3.6765,3.6861,3.6877,3.693,3.7002,3.701,3.6945,3.694,3.7066,3.708,3.7095,3.725,3.7132,3.714,3.7145,3.749,3.7495,3.7499,0,0,0,0,0,0,3.6664,3.669,3.6901,3.6804,3.683,3.687,3.693,3.6935,3.6971,3.7016,3.7022,3.6975,3.7064,3.7082,3.7193,3.7254,3.7144,3.7152,3.7485,3.7491,3.7497,3.7564,0,0,0,0,0,0,3.6656,3.6688,3.6741,3.6805,3.6835,3.7001,3.6934,3.694,3.6987,3.6981,3.7045,3.7052,3.7062,3.7181,3.7202,3.7264,3.7159,3.748,3.7488,3.7495,3.7557,3.7572,3.7585,0,0,0,0,0,3.6646,3.6754,3.6744,3.677,3.6903,3.7005,3.7022,3.7033,3.6992,3.7043,3.7071,3.705,3.7244,3.7192,3.7216,3.7282,3.7476,3.7486,3.7495,3.7551,3.7569,3.7585,0,0,0,0,0,0,3.6695,3.6763,3.6752,3.6885,3.694,3.6999,3.7065,3.7053,3.7119,3.7111,3.7119,3.7134,3.7246,3.7275,3.7216,3.741,3.7354,3.7368,3.7388,3.7406,3.742,3.741,3.7166,0,0,0,0,0,3.6721,3.6801,3.6855,3.6967,3.6995,3.7025,3.707,3.7074,3.713,3.7152,3.7189,3.7241,3.7313,3.7361,3.7431,3.756,3.7572,3.7617,3.7631,3.7642,3.7655,3.7721,3.7741,3.753,3.753,3.753,0,0,3.6776,3.6823,3.6873,3.6978,3.7021,3.71,3.7045,3.7132,3.719,3.7164,3.7272,3.73,3.7359,3.7479,3.7533,3.7506,3.7715,3.7654,3.7663,3.767,3.7733,3.7753,3.7771,3.7537,3.7536,3.7535,0,0,3.6917,3.6962,3.7059,3.7102,3.7167,3.7186,3.7209,3.727,3.7288,3.7396,3.7377,3.7444,3.757,3.7612,3.7649,3.7801,3.7782,3.7823,3.7897,3.7962,3.7978,3.7993,3.8044,3.8063,3.7835,3.7835,3.7835,0,3.6977,3.7098,3.7109,3.7197,3.7242,3.7223,3.7318,3.7359,3.7443,3.7473,3.7441,3.7596,3.7635,3.7762,3.7799,3.7831,3.7854,3.7816,3.7976,3.799,3.8004,3.8053,3.8073,3.784,3.7839,3.7839,3.7838,0,3.7167,3.7251,3.732,3.7403,3.7455,3.7546,3.7567,3.7618,3.7616,3.7636,3.7743,3.7789,3.7865,3.7896,3.7894,3.8022,3.8003,3.7974,3.7917,3.8028,3.8074,3.8094,3.7846,3.7844,3.7843,3.7842,0,0,3.7344,3.7429,3.7454,3.749,3.7559,3.7622,3.771,3.7786,3.7828,3.7885,3.7957,3.8062,3.8034,3.8077,3.8079,3.8136,3.8249,3.8099,3.81,3.8124,3.8389,3.841,3.8432,3.8237,3.8241,3.8244,3.8383,0,3.7489,3.7648,3.7658,3.7799,3.7874,3.7855,3.7931,3.7979,3.8,3.8064,3.8086,3.8159,3.8119,3.8143,3.8199,3.8224,3.8302,3.8214,3.8301,3.8304,3.8286,3.8456,3.848,3.8609,3.8401,3.8404,3.8407,0,3.7681,3.7745,3.7894,3.7948,3.798,3.8049,3.8117,3.818,3.8232,3.8243,3.8289,3.8282,3.8368,3.8308,3.8424,3.8364,3.8399,3.8416,3.8421,3.8429,3.8362,3.8467,3.8651,3.867,3.8436,3.8433,3.8431,0,3.7793,3.7915,3.802,3.8051,3.8118,3.8165,3.8195,3.8244,3.8287,3.8346,3.8374,3.8441,3.8477,3.8528,3.8537,3.8493,3.8653,3.8594,3.8661,3.8661,3.8696,3.8694,3.8887,3.8721,3.872,3.872,3.872,0,3.7953,3.8045,3.807,3.8135,3.8235,3.8243,3.8341,3.8367,3.8409,3.8475,3.8462,3.8524,3.8534,3.8596,3.8604,3.8697,3.8714,3.8722,3.8723,3.8723,3.8722,3.8747,3.8737,3.8725,3.8724,3.8723,3.8722,0,3.8096,3.8117,3.8229,3.8282,3.8297,3.8368,3.8412,3.8472,3.8489,3.8573,3.8592,3.862,3.8693,3.8707,3.8793,3.8798,3.8908,3.8901,3.8891,3.889,3.8956,3.8949,3.9171,3.9199,3.9016,3.9017,3.9019,0,3.8196,3.8266,3.8327,3.8371,3.8403,3.8474,3.8518,3.8527,3.8573,3.8636,3.8687,3.8758,3.8816,3.8932,3.8957,3.9022,3.9015,3.9088,3.9024,3.9021,3.9013,3.9009,3.9014,3.91,3.9102,3.9103,3.9105,0,3.8372,3.8378,3.8444,3.8512,3.8566,3.862,3.8671,3.8707,3.8722,3.8774,3.8848,3.8893,3.898,3.905,3.9113,3.914,3.9124,3.9124,3.9143,3.9143,3.9134,3.9138,3.8923,3.9119,3.9118,3.9117,3.9116,3.9115,3.8495,3.8555,3.8606,3.8678,3.8718,3.8765,3.8822,3.8847,3.891,3.8983,3.8983,3.9064,3.911,3.9194,3.9224,3.9285,3.9262,3.9289,3.9296,3.9302,3.9308,3.9125,3.9297,3.9296,3.9296,3.9296,3.9296,0,3.8668,3.87,3.8766,3.8838,3.8894,3.8875,3.8929,3.8976,3.9048,3.9093,3.915,3.9234,3.93,3.933,3.9395,3.9437,3.9431,3.9454,3.945,3.9456,3.9326,3.9303,3.9458,3.9458,3.9458,3.9457,3.9457,3.9457,3.8765,3.8864,3.8876,3.8992,3.9022,3.9103,3.9135,3.9176,3.9212,3.9307,3.9363,3.9382,3.942,3.9487,3.9545,3.9552,3.9576,3.9601,3.9604,3.9482,3.9466,3.945,3.9428,3.9607,3.9607,3.9729,3.973,3.9731]}]]